Weather History for Wolf Point, MT

Change the Weather History Date:

Tuesday, January 8, 2013

  Actual Average Record
Temperature  
Mean Temperature 25 °F -  
Max Temperature 36 °F 23 °F 61 °F (2002)
Min Temperature 14 °F 1 °F -16 °F (1999)
Degree Days  
Heating Degree Days 40    
Cooling Degree Days 0    
Moisture  
Dew Point 23 °F    
Average Humidity 81    
Maximum Humidity 93    
Minimum Humidity 71    
Precipitation  
Precipitation 0.01 in 0.02 in 0.07 in (2009)
Month to date precipitation 0.04 0.11  
Year to date precipitation 0.04 0.11  
Sea Level Pressure  
Sea Level Pressure 29.80 in    
Wind  
Wind Speed 9 mph (WSW)    
Max Wind Speed 21 mph    
Max Gust Speed 31 mph    
Visibility 10 miles    
Events Rain , Snow    
T = Trace of Precipitation, MM = Missing Value Source: NWS Daily Summary

Daily Weather History Graph

Daily Weather History Graph

Search for Another Location

Airport:

Trip Planner

Search our weather history database for the weather conditions in past years. The results will help you decide how hot, cold, wet, or windy it might be!

Date:

Astronomy

Jan. 08, 2013 Rise Set
Actual Time 7:51 AM MST 4:27 PM MST
Civil Twilight 7:15 AM MST 5:03 PM MST
Nautical Twilight 6:36 AM MST 5:42 PM MST
Astronomical Twilight 5:58 AM MST 6:20 PM MST
Moon 4:25 AM MST (1/8) 1:32 PM MST (1/8)
Length of Visible Light 9h 48m
Length of Day
8h 36m
Waning Crescent, 13% of the Moon is Illuminated
Jan 8
Waning Crescent
Jan 11
New
Jan 18
First Quarter
Jan 26
Full
Feb 3
Last Quarter

Hourly Weather History & Observations

Time (MST) Temp. Windchill Dew Point Humidity Pressure Visibility Wind Dir Wind Speed Gust Speed Precip Events Conditions
12:34 AM 28.4 °F - 26.6 °F 93% 29.55 in 3.0 mi Calm Calm - 0.02 in Snow Light Snow
12:51 AM 33.8 °F 27.7 °F 30.2 °F 87% 29.54 in 10.0 mi SSW 6.9 mph - 0.02 in   Overcast
12:53 AM 34.0 °F 27.2 °F 30.9 °F 89% 29.62 in 10.0 mi SSW 8.1 mph - 0.02 in   Overcast
1:26 AM 33.8 °F 27.7 °F 30.2 °F 87% 29.53 in 10.0 mi SW 6.9 mph - 0.00 in Rain Light Rain
1:53 AM 35.1 °F 26.9 °F 30.9 °F 85% 29.59 in 10.0 mi SSW 11.5 mph - 0.00 in   Overcast
2:53 AM 34.0 °F 28.0 °F 30.0 °F 85% 29.60 in 10.0 mi SW 6.9 mph - N/A   Overcast
3:53 AM 26.1 °F 21.9 °F 24.1 °F 92% 29.64 in 10.0 mi NW 3.5 mph - N/A   Scattered Clouds
4:53 AM 30.0 °F 21.1 °F 26.1 °F 85% 29.66 in 10.0 mi WSW 10.4 mph - N/A   Clear
5:53 AM 27.0 °F 16.7 °F 23.0 °F 85% 29.70 in 10.0 mi West 11.5 mph - N/A   Clear
6:53 AM 26.6 °F 15.2 °F 21.2 °F 80% 29.61 in 10.0 mi West 13.8 mph - N/A   Clear
7:53 AM 28.0 °F 20.0 °F 21.9 °F 78% 29.75 in 10.0 mi West 8.1 mph - N/A   Scattered Clouds
8:53 AM 28.0 °F 17.0 °F 23.0 °F 81% 29.77 in 10.0 mi WSW 13.8 mph - N/A   Scattered Clouds
9:53 AM 33.1 °F 22.6 °F 26.1 °F 75% 29.79 in 10.0 mi West 16.1 mph - N/A   Overcast
10:53 AM 35.1 °F 24.5 °F 27.0 °F 72% 29.81 in 10.0 mi West 18.4 mph 25.3 mph N/A   Overcast
11:53 AM 34.0 °F 23.8 °F 28.9 °F 82% 29.83 in 10.0 mi West 16.1 mph - N/A   Mostly Cloudy
12:53 PM 35.1 °F 23.8 °F 28.0 °F 76% 29.83 in 10.0 mi WNW 20.7 mph 31.1 mph N/A   Overcast
1:53 PM 33.8 °F 24.3 °F 28.4 °F 81% 29.79 in 10.0 mi West 13.8 mph 23.0 mph N/A   Overcast
2:53 PM 33.1 °F 22.2 °F 27.0 °F 78% 29.88 in 10.0 mi West 17.3 mph 24.2 mph N/A   Clear
3:53 PM 32.0 °F 19.8 °F 27.0 °F 82% 29.93 in 10.0 mi West 20.7 mph - N/A   Clear
4:53 PM 30.0 °F 18.3 °F 25.0 °F 82% 29.95 in 10.0 mi West 17.3 mph - N/A   Clear
5:53 PM 27.0 °F 15.6 °F 21.0 °F 78% 29.99 in 10.0 mi West 13.8 mph - N/A   Clear
6:53 PM 24.1 °F 12.5 °F 19.0 °F 81% 30.02 in 10.0 mi WSW 12.7 mph - N/A   Clear
7:53 PM 23.0 °F 10.1 °F 15.1 °F 72% 30.04 in 10.0 mi WSW 15.0 mph - N/A   Clear
8:53 PM 21.0 °F 8.6 °F 12.9 °F 71% 30.04 in 10.0 mi West 12.7 mph - N/A   Clear
9:53 PM 17.6 °F 8.2 °F 10.4 °F 73% 29.97 in 10.0 mi WSW 6.9 mph - N/A   Clear
10:53 PM 16.0 °F 4.4 °F 10.0 °F 77% 30.07 in 10.0 mi West 9.2 mph - N/A   Clear
11:53 PM 14.0 °F 5.1 °F 10.0 °F 84% 30.09 in 10.0 mi SSW 5.8 mph - N/A   Clear